COSMOS 1522

Satellite information

Favourite Embed

Satellite Type and Status

PAYLOADIN ORBIT

Key statistics

Satellite COSMOS 1522 at a glance.

Uptime

15161

Days in orbit

Revolutions

≈ 12.5

Per day

Orbit

LEO

Low Earth Orbit

Inclination

74.0

Latest

Satellite identification and parameters

Extended collection of information and parameters for COSMOS 1522.

Object identification

Identified? True

Debris? False

Object name: COSMOS 1522

International designator: 1984-001A

Object number (NORAD): 14611

Object ID (CCSDS): 14611

Country: COMMONWEALTH OF INDEPENDENT STATES (CIS)

Current information (Y/N): Y

RCS size: MEDIUM

Orbital parameters

Period: 115.472 minutes

Inclination: 74.0064 deg

SMA: 7854.955 km

Apoapsis: 1492.668 km

Periapsis: 1460.972 km

RAAN: 158.1239 deg

Eccentricy: 0.0020176

Argument of periapsis: 333.2085 deg

Mean anomaly: 34.0494 deg

Mean motion: 12.47059588 rev/day

Mean motion (dot): -0.0000002 rev/day2

B* drag term: -0.000025208 1/REarth

Two-line elements (TLE)

Creation date: July 8, 2025, 2:27 a.m.

Reference frame: TEME

Reference center: EARTH

Epoch: July 7, 2025, 10:25 p.m. UTC

TLE line 0: 0 COSMOS 1522

TLE line 1: 1 14611U 84001A 25188.93471995 -.00000020 00000-0 -25208-4 0 9992

TLE line 2: 2 14611 74.0064 158.1239 0020176 333.2085 34.0494 12.47059588889452

Live tracking on map

Real-time ground track for satellite COSMOS 1522.

In-orbit conjunctions

There are no conjunctions computed for COSMOS 1522, at the moment. Check back to stay up to date, as we update our databases every day.

Go to all conjunctions

Associated space launch

Military communications satellites

COSMOS 1522 was lifted into orbit during the mission ‘Kosmos-3M | Strela-1M 273-280’, on board a Kosmos-3M space rocket.

The launch took place on Jan. 5, 1984, 8:09 p.m. from 132/2.

For more information about the launch, click the button.

Launch to space Kosmos-3M | Strela-1M 273-280
Kosmos-3M | Strela-1M 273-280

Agency: N/A

Status: Launch Successful

Launch date: Jan. 5, 1984, 8:09 p.m. UTC

Rocket: Kosmos-3M

Launch pad: 132/2

Location: Plesetsk Cosmodrome, Russian Federation

...

Latest news about this satellite

There are no fresh news available about this satellite. Check back as we update our databases every day.


Newsletter sign-up

Weekly statistics, charts and insights to help you stay on top of the space industry.